This is the latest recevied weather packets stored in our database for station/object IT9CNT. If no packets are shown the sender has not sent any weather packets the latest 10 day(s).
| Time | Temp. | Humidity | Pressure | Rain* | Wind** | Luminosity | Snow |
|---|---|---|---|---|---|---|---|
| 1777510203 | 16.11° C | 73% | 1012 hPa | 0 mm | - | - | - |
| 1777510143 | 16.67° C | 71% | 1012.1 hPa | 0 mm | - | - | - |
| 1777510083 | 16.11° C | 70% | 1012.1 hPa | 0 mm | - | - | - |
| 1777510023 | 16.11° C | 70% | 1012.1 hPa | 0 mm | - | - | - |
| 1777509963 | 16.11° C | 70% | 1012.1 hPa | 0 mm | - | - | - |
| 1777509903 | 16.11° C | 70% | 1012.1 hPa | 0 mm | - | - | - |
| 1777509843 | 15.56° C | 70% | 1012.1 hPa | 0 mm | - | - | - |
| 1777509783 | 15.56° C | 70% | 1012.3 hPa | 0 mm | - | - | - |
| 1777509723 | 15.56° C | 70% | 1012.3 hPa | 0 mm | - | - | - |
| 1777509663 | 15.56° C | 71% | 1012.4 hPa | 0 mm | - | - | - |
| 1777509603 | 15.56° C | 71% | 1012.4 hPa | 0 mm | - | - | - |
| 1777509543 | 15° C | 71% | 1012.4 hPa | 0 mm | - | - | - |
| 1777509483 | 15° C | 71% | 1012.2 hPa | 0 mm | - | - | - |
| 1777509423 | 15° C | 71% | 1012.5 hPa | 0 mm | - | - | - |
| 1777509363 | 15.56° C | 71% | 1012.5 hPa | 0 mm | - | - | - |
| 1777509303 | 15.56° C | 71% | 1012.5 hPa | 0 mm | - | - | - |
| 1777509243 | 15.56° C | 71% | 1012.4 hPa | 0 mm | - | - | - |
| 1777509184 | 15.56° C | 72% | 1012.7 hPa | 0 mm | - | - | - |
| 1777509123 | 15.56° C | 72% | 1012.3 hPa | 0 mm | - | - | - |
| 1777509063 | 15.56° C | 72% | 1012.4 hPa | 0 mm | - | - | - |
| 1777509004 | 15.56° C | 72% | 1012.7 hPa | 0 mm | - | - | - |
| 1777508944 | 15.56° C | 73% | 1012.2 hPa | 0 mm | - | - | - |
| 1777508884 | 15.56° C | 73% | 1012.5 hPa | 0 mm | - | - | - |
| 1777508824 | 15.56° C | 73% | 1012.3 hPa | 0 mm | - | - | - |
| 1777508764 | 15.56° C | 74% | 1012.4 hPa | 0 mm | - | - | - |
* Rain latest hour (hover to see other rain measurements)
** Current wind speed in m/s (hover to see current wind gust speed)